[Date Prev][Date Next][Thread Prev][Thread Next] - [Date Index][Thread Index][Author Index]

2 Line ISS Keps 4-18



ISS
1 25544U 98067A   05107.92870370  .00021912  00000-0  17339-3 0  2656
2 25544 051.6457 209.3762 0007138 024.4851 134.4101 15.71246514366209
----
Via the sarex mailing list at AMSAT.ORG courtesy of AMSAT-NA.
To unsubscribe, send "unsubscribe sarex" to Majordomo@amsat.org



AMSAT Top AMSAT Home